Bryce Canyon, UT

9:13 PM MDT on June 26, 2017 (GMT -0600)
Bryce Canyon

Weather History for KBCE - January, 2013

Change the Weather History Date:

Saturday, January 26, 2013

  Actual Average Record
Temperature  
Mean Temperature 32 °F -  
Max Temperature 33 °F 38 °F 55 °F (1975)
Min Temperature 30 °F 12 °F -20 °F (2017)
Degree Days  
Heating Degree Days 34    
Moisture  
Dew Point 32 °F    
Average Humidity 100    
Maximum Humidity 100    
Minimum Humidity 93    
Precipitation  
Precipitation 0.30 in - - ()
Sea Level Pressure  
Sea Level Pressure 29.95 in    
Wind  
Wind Speed 2 mph (SSE)    
Max Wind Speed 7 mph    
Max Gust Speed -    
Visibility 3 miles    
Events Fog , Rain , Snow    
Averages and records for this station are not official NWS values.
T = Trace of Precipitation, MM = Missing Value Source: NWS Daily Summary

Daily Weather History Graph

Daily Weather History Graph

Search for Another Location

Airport or City:

Trip Planner

Search our weather history database for the weather conditions in past years. The results will help you decide how hot, cold, wet, or windy it might be!

Date:

Astronomy

Jan. 26, 2013 Rise Set
Actual Time 7:36 AM MST 5:46 PM MST
Civil Twilight 7:08 AM MST 6:14 PM MST
Nautical Twilight 6:37 AM MST 6:45 PM MST
Astronomical Twilight 6:06 AM MST 7:16 PM MST
Moon 5:43 PM MST (1/26) 6:57 AM MST (1/26)
Length of Visible Light 11h 05m
Length of Day
10h 09m
Full, 100% of the Moon is Illuminated
Jan 26
Full
Jan 26
Full
Feb 3
Last Quarter
Feb 10
New
Feb 17
First Quarter

Hourly Weather History & Observations

Time (MST) Temp. Windchill Dew Point Humidity Pressure Visibility Wind Dir Wind Speed Gust Speed Precip Events Conditions
12:27 AM 33.8 °F - 33.8 °F 100% 30.19 in 0.2 mi Calm Calm - 0.01 in Fog , Snow Light Snow
12:44 AM 33.8 °F - 33.8 °F 100% 30.18 in 0.5 mi Calm Calm - 0.02 in Fog , Snow Light Snow
12:53 AM 32.0 °F - 32.0 °F 100% 30.08 in 1.2 mi Calm Calm - 0.03 in Snow Light Snow
1:10 AM 32.0 °F - 32.0 °F 100% 30.17 in 3.0 mi Calm Calm - 0.00 in   Overcast
1:29 AM 32.0 °F - 32.0 °F 100% 30.16 in 1.8 mi Calm Calm - 0.00 in   Overcast
1:43 AM 32.0 °F - 32.0 °F 100% 30.15 in 0.5 mi Calm Calm - 0.00 in Fog Fog
1:53 AM 32.0 °F - 32.0 °F 100% 30.05 in 0.5 mi Calm Calm - 0.00 in Fog Fog
2:19 AM 32.0 °F - 32.0 °F 100% 30.14 in 0.5 mi Calm Calm - 0.00 in Fog Fog
2:53 AM 32.0 °F - 32.0 °F 100% 30.02 in 1.5 mi Calm Calm - 0.01 in   Overcast
3:09 AM 32.0 °F - 32.0 °F 100% 30.12 in 3.0 mi Calm Calm - 0.00 in   Overcast
3:42 AM 33.8 °F - 33.8 °F 100% 30.10 in 3.0 mi Calm Calm - 0.00 in Rain Light Rain
3:53 AM 33.1 °F - 33.1 °F 100% 29.97 in 3.0 mi Calm Calm - 0.00 in Rain Light Rain
4:01 AM 33.8 °F - 33.8 °F 100% 30.08 in 2.0 mi Calm Calm - 0.01 in Rain Light Rain
4:11 AM 33.8 °F - 33.8 °F 100% 30.07 in 1.2 mi Calm Calm - 0.01 in Rain Light Rain
4:27 AM 33.8 °F - 33.8 °F 100% 30.07 in 0.8 mi Calm Calm - 0.01 in Rain Light Rain
4:53 AM 33.1 °F - 33.1 °F 100% 29.94 in 0.5 mi Calm Calm - 0.02 in Fog , Rain Light Rain
5:36 AM 33.8 °F - 33.8 °F 100% 30.06 in 1.8 mi Calm Calm - 0.02 in Snow Light Snow
5:43 AM 33.8 °F - 33.8 °F 100% 30.06 in 3.0 mi Calm Calm - 0.03 in Snow Light Snow
5:53 AM 33.1 °F 28.7 °F 33.1 °F 100% 29.95 in 2.5 mi SSE 4.6 mph - 0.04 in Snow Light Snow
6:00 AM 32.0 °F 26.4 °F 32.0 °F 100% 30.06 in 1.8 mi SSE 5.8 mph - 0.01 in Snow Light Snow
6:09 AM 32.0 °F 27.5 °F 32.0 °F 100% 30.06 in 1.8 mi SSE 4.6 mph - 0.02 in Snow Light Snow
6:17 AM 32.0 °F 28.7 °F 32.0 °F 100% 30.05 in 1.8 mi SSE 3.5 mph - 0.02 in Snow Light Snow
6:48 AM 32.0 °F 27.5 °F 32.0 °F 100% 30.04 in 1.2 mi SE 4.6 mph - 0.04 in Snow Light Snow
6:53 AM 32.0 °F 28.7 °F 32.0 °F 100% 29.94 in 1.0 mi SE 3.5 mph - 0.04 in Snow Light Snow
7:08 AM 32.0 °F 28.7 °F 32.0 °F 100% 30.04 in 2.0 mi SE 3.5 mph - 0.01 in Snow Light Snow
7:17 AM 32.0 °F 26.4 °F 32.0 °F 100% 30.04 in 1.2 mi SE 5.8 mph - 0.01 in Snow Light Snow
7:53 AM 32.0 °F 26.4 °F 32.0 °F 100% 29.93 in 1.0 mi SE 5.8 mph - 0.02 in Snow Light Snow
7:57 AM 30.2 °F 25.4 °F 30.2 °F 100% 30.03 in 0.8 mi SSE 4.6 mph - 0.01 in Snow Light Snow
8:16 AM 30.2 °F 23.4 °F 30.2 °F 100% 30.02 in 1.0 mi SE 6.9 mph - 0.02 in Snow Light Snow
8:25 AM 30.2 °F 25.4 °F 30.2 °F 100% 30.01 in 2.0 mi ESE 4.6 mph - 0.03 in Snow Light Snow
8:41 AM 30.2 °F 26.7 °F 30.2 °F 100% 30.02 in 0.8 mi SE 3.5 mph - 0.03 in Snow Light Snow
8:53 AM 30.9 °F 26.2 °F 30.9 °F 100% 29.91 in 0.2 mi ESE 4.6 mph - 0.03 in Fog , Snow Light Snow
9:13 AM 30.2 °F 24.3 °F 30.2 °F 100% 30.01 in 0.8 mi SE 5.8 mph - 0.00 in Snow Light Snow
9:39 AM 30.2 °F 26.7 °F 30.2 °F 100% 30.01 in 1.0 mi SSE 3.5 mph - 0.01 in Snow Light Snow
9:53 AM 30.9 °F 27.5 °F 30.9 °F 100% 29.91 in 1.5 mi SE 3.5 mph - 0.01 in Snow Light Snow
10:22 AM 30.2 °F 24.3 °F 30.2 °F 100% 30.00 in 0.8 mi SE 5.8 mph - 0.00 in Snow Light Snow
10:53 AM 32.0 °F 26.4 °F 32.0 °F 100% 29.90 in 0.5 mi SE 5.8 mph - 0.01 in Fog , Snow Light Snow
11:16 AM 32.0 °F 26.4 °F 32.0 °F 100% 30.00 in 1.0 mi SE 5.8 mph - 0.01 in Snow Light Snow
11:53 AM 30.9 °F 24.3 °F 30.9 °F 100% 29.88 in 1.0 mi SE 6.9 mph - 0.02 in Snow Light Snow
12:49 PM 32.0 °F - 32.0 °F 100% 29.94 in 0.8 mi Calm Calm - 0.01 in Snow Light Snow
12:53 PM 32.0 °F - 32.0 °F 100% 29.83 in 0.8 mi Calm Calm - 0.01 in Snow Light Snow
1:09 PM 32.0 °F 28.7 °F 32.0 °F 100% 29.92 in 2.5 mi SE 3.5 mph - 0.00 in   Overcast
1:16 PM 32.0 °F - 32.0 °F 100% 29.92 in 6.0 mi Calm Calm - 0.00 in   Overcast
1:23 PM 32.0 °F 28.7 °F 32.0 °F 100% 29.91 in 1.8 mi SE 3.5 mph - 0.00 in   Overcast
1:36 PM 32.0 °F 28.7 °F 32.0 °F 100% 29.91 in 3.0 mi South 3.5 mph - 0.00 in   Overcast
1:53 PM 33.1 °F 30.0 °F 32.0 °F 96% 29.78 in 7.0 mi South 3.5 mph - 0.00 in   Overcast
2:53 PM 33.1 °F 27.7 °F 33.1 °F 100% 29.77 in 10.0 mi SSE 5.8 mph - N/A   Overcast
3:05 PM 33.8 °F 29.6 °F 33.8 °F 100% 29.88 in 2.5 mi SSE 4.6 mph - N/A   Overcast
3:12 PM 33.8 °F 29.6 °F 33.8 °F 100% 29.88 in 0.8 mi SSE 4.6 mph - N/A   Overcast
3:26 PM 33.8 °F 28.6 °F 33.8 °F 100% 29.88 in 2.5 mi SSE 5.8 mph - N/A   Overcast
3:33 PM 33.8 °F 27.7 °F 32.0 °F 93% 29.88 in 8.0 mi SSE 6.9 mph - N/A   Overcast
3:53 PM 33.1 °F 30.0 °F 33.1 °F 100% 29.76 in 10.0 mi SSE 3.5 mph - N/A   Overcast
4:24 PM 33.8 °F 28.6 °F 33.8 °F 100% 29.87 in 1.5 mi SSE 5.8 mph - N/A   Overcast
4:43 PM 32.0 °F 27.5 °F 32.0 °F 100% 29.87 in 2.0 mi SSE 4.6 mph - 0.00 in Snow Light Snow
4:53 PM 32.0 °F 26.4 °F 32.0 °F 100% 29.75 in 1.2 mi SSE 5.8 mph - 0.00 in Snow Light Snow
5:17 PM 32.0 °F 25.6 °F 32.0 °F 100% 29.86 in 0.5 mi SSE 6.9 mph - 0.01 in Fog , Snow Light Snow
5:29 PM 32.0 °F 25.6 °F 32.0 °F 100% 29.86 in 0.2 mi SSE 6.9 mph - 0.01 in Fog , Snow Light Snow
5:53 PM 32.0 °F 27.5 °F 32.0 °F 100% 29.76 in 0.2 mi South 4.6 mph - 0.02 in Fog , Snow Light Snow
6:20 PM 32.0 °F 28.7 °F 32.0 °F 100% 29.88 in 0.5 mi SSE 3.5 mph - 0.01 in Fog , Snow Light Snow
6:31 PM 32.0 °F 27.5 °F 32.0 °F 100% 29.88 in 1.2 mi SSE 4.6 mph - 0.01 in Snow Light Snow
6:51 PM 30.2 °F 26.7 °F 30.2 °F 100% 29.89 in 0.8 mi South 3.5 mph - 0.02 in Snow Light Snow
6:53 PM 30.9 °F - 30.9 °F 100% 29.78 in 0.8 mi Calm Calm - 0.02 in Snow Light Snow
7:02 PM 30.2 °F 25.4 °F 30.2 °F 100% 29.89 in 1.2 mi SSE 4.6 mph - 0.00 in Snow Light Snow
7:18 PM 30.2 °F 26.7 °F 30.2 °F 100% 29.89 in 1.2 mi SSE 3.5 mph - 0.01 in Snow Light Snow
7:43 PM 30.2 °F - 30.2 °F 100% 29.89 in 1.2 mi Calm Calm - 0.01 in Snow Light Snow
7:53 PM 30.9 °F - 30.9 °F 100% 29.78 in 0.8 mi Calm Calm - 0.01 in Snow Light Snow
8:12 PM 30.2 °F 25.4 °F 30.2 °F 100% 29.89 in 0.5 mi SSE 4.6 mph - 0.01 in Fog Light Freezing Fog
8:36 PM 30.2 °F 25.4 °F 30.2 °F 100% 29.89 in 0.2 mi SSE 4.6 mph - 0.01 in Fog Light Freezing Fog
8:53 PM 30.9 °F - 30.9 °F 100% 29.80 in 0.5 mi Calm Calm - 0.01 in Fog Light Freezing Fog
9:03 PM 30.2 °F - 30.2 °F 100% 29.90 in 0.5 mi Calm Calm - N/A Fog Light Freezing Fog
9:18 PM 30.2 °F 26.7 °F 30.2 °F 100% 29.90 in 2.0 mi SSW 3.5 mph - N/A   Overcast
9:26 PM 30.2 °F 25.4 °F 30.2 °F 100% 29.90 in 9.0 mi South 4.6 mph - N/A   Overcast
9:46 PM 30.2 °F - 30.2 °F 100% 29.91 in 10.0 mi Calm Calm - N/A   Overcast
9:53 PM 30.9 °F 27.5 °F 30.9 °F 100% 29.82 in 10.0 mi WSW 3.5 mph - N/A   Overcast
10:53 PM 32.0 °F 26.4 °F 30.9 °F 96% 29.81 in 10.0 mi WNW 5.8 mph - N/A   Overcast
11:07 PM 32.0 °F 27.5 °F 32.0 °F 100% 29.92 in 10.0 mi NW 4.6 mph - N/A   Overcast
11:17 PM 32.0 °F 27.5 °F 32.0 °F 100% 29.92 in 10.0 mi NW 4.6 mph - N/A   Overcast
11:23 PM 32.0 °F 27.5 °F 32.0 °F 100% 29.92 in 10.0 mi NW 4.6 mph - N/A   Overcast
11:53 PM 32.0 °F 28.7 °F 32.0 °F 100% 29.82 in 10.0 mi NNW 3.5 mph - N/A   Overcast